STARLINK-11206 [DTC] (60312 NORAD) Tracking and Keplerian Element Data

This shows tracking and keplerian element data for the satellite.

Feedback or suggestion? Click here.




ElementValue
Catalog60312
NameSTARLINK-11206 [DTC]
Epoch Orbit1317
Epoch Day286.79524881
Epoch Year2024
RAAN154.9436
Inclination53.1577
Eccentricity0.0001052
Argument of Perigee165.8425
Mean Anonmoly194.2623
Mean Motion15.69733341
Decay Rate0.00065094
L11 60312U 24133M 24286.79524881 .00065094 00000+0 53742-3 0 9998
L22 60312 53.1577 154.9436 0001052 165.8425 194.2623 15.69733341 13174



Live tracking and technical data element details for STARLINK-11206 [DTC] (NORAD 60312). STARLINK-11206 [DTC] can be tracked NOW for your location showing map with azimuth and elevation plus other details from your city location.







IsCatalogInMostPopularTable: catalog: 60312, numindb: 8
Update: records affected: 1



GetName: 60312 STARLINK-11206 [DTC]

Hit Count: updated at: Wed, 04 Dec 2024 12:49:33 GMT